# Tabular Observed and Forecast Hydrograph Information
#
# Location: Maacama Creek - Kellogg (RMKC1)
#
# File Generation Time: 09/04/2026 at 07:28 AM PDT
# Data Interval: 1 Hour
#
# Most Recent Date & Time of Maximum Observed: 09/04/2026 at 07:00 AM PDT
# Maximum Observed Stage: 3.67 Feet
# Maximum Observed Flow: 1 cfs
#
# Earliest Date & Time of Maximum Forecast: 09/08/2026 at 01:00 PM PDT
# Maximum Forecast Stage: 3.69 Feet
# Maximum Forecast Flow: 1 cfs
#
# OBSERVED
#
# Date & Time (Local) Stage (Feet) Flow (cfs) Trend Observed Status
# ---------------------------------------------------------------------------------
08/30/2026 07 AM PDT 3.59 1 Normal
08/30/2026 08 AM PDT 3.59 1 0 Normal
08/30/2026 09 AM PDT 3.59 1 0 Normal
08/30/2026 10 AM PDT 3.59 1 0 Normal
08/30/2026 11 AM PDT 3.59 1 0 Normal
08/30/2026 12 PM PDT 3.60 1 + Normal
08/30/2026 01 PM PDT 3.60 1 0 Normal
08/30/2026 02 PM PDT 3.60 1 0 Normal
08/30/2026 03 PM PDT 3.60 1 0 Normal
08/30/2026 04 PM PDT 3.59 1 - Normal
08/30/2026 05 PM PDT 3.59 1 0 Normal
08/30/2026 06 PM PDT 3.59 1 0 Normal
08/30/2026 07 PM PDT 3.58 1 - Normal
08/30/2026 08 PM PDT 3.58 1 0 Normal
08/30/2026 09 PM PDT 3.58 1 0 Normal
08/30/2026 10 PM PDT 3.58 1 0 Normal
08/30/2026 11 PM PDT 3.58 1 0 Normal
08/31/2026 12 AM PDT 3.58 1 0 Normal
08/31/2026 01 AM PDT 3.58 1 0 Normal
08/31/2026 02 AM PDT 3.58 1 0 Normal
08/31/2026 03 AM PDT 3.58 1 0 Normal
08/31/2026 04 AM PDT 3.58 1 0 Normal
08/31/2026 05 AM PDT 3.58 1 0 Normal
08/31/2026 06 AM PDT 3.58 1 0 Normal
08/31/2026 07 AM PDT 3.59 1 + Normal
08/31/2026 08 AM PDT 3.59 1 0 Normal
08/31/2026 09 AM PDT 3.59 1 0 Normal
08/31/2026 10 AM PDT 3.59 1 0 Normal
08/31/2026 11 AM PDT 3.59 1 0 Normal
08/31/2026 12 PM PDT 3.60 1 + Normal
08/31/2026 01 PM PDT 3.60 1 0 Normal
08/31/2026 02 PM PDT 3.60 1 0 Normal
08/31/2026 03 PM PDT 3.60 1 0 Normal
08/31/2026 04 PM PDT 3.60 1 0 Normal
08/31/2026 05 PM PDT 3.60 1 0 Normal
08/31/2026 06 PM PDT 3.59 1 - Normal
08/31/2026 07 PM PDT 3.59 1 0 Normal
08/31/2026 08 PM PDT 3.59 1 0 Normal
08/31/2026 09 PM PDT 3.59 1 0 Normal
08/31/2026 10 PM PDT 3.59 1 0 Normal
08/31/2026 11 PM PDT 3.59 1 0 Normal
09/01/2026 12 AM PDT 3.59 1 0 Normal
09/01/2026 01 AM PDT 3.59 1 0 Normal
09/01/2026 02 AM PDT 3.59 1 0 Normal
09/01/2026 03 AM PDT 3.59 1 0 Normal
09/01/2026 04 AM PDT 3.59 1 0 Normal
09/01/2026 05 AM PDT 3.59 1 0 Normal
09/01/2026 06 AM PDT 3.59 1 0 Normal
09/01/2026 07 AM PDT 3.60 1 + Normal
09/01/2026 08 AM PDT 3.60 1 0 Normal
09/01/2026 09 AM PDT 3.60 1 0 Normal
09/01/2026 10 AM PDT 3.60 1 0 Normal
09/01/2026 11 AM PDT 3.60 1 0 Normal
09/01/2026 12 PM PDT 3.60 1 0 Normal
09/01/2026 01 PM PDT 3.60 1 0 Normal
09/01/2026 02 PM PDT 3.60 1 0 Normal
09/01/2026 03 PM PDT 3.60 1 0 Normal
09/01/2026 04 PM PDT 3.60 1 0 Normal
09/01/2026 05 PM PDT 3.60 1 0 Normal
09/01/2026 06 PM PDT 3.59 1 - Normal
09/01/2026 07 PM PDT 3.59 1 0 Normal
09/01/2026 08 PM PDT 3.59 1 0 Normal
09/01/2026 09 PM PDT 3.59 1 0 Normal
09/01/2026 10 PM PDT 3.59 1 0 Normal
09/01/2026 11 PM PDT 3.58 1 - Normal
09/02/2026 12 AM PDT 3.58 1 0 Normal
09/02/2026 01 AM PDT 3.58 1 0 Normal
09/02/2026 02 AM PDT 3.58 1 0 Normal
09/02/2026 03 AM PDT 3.58 1 0 Normal
09/02/2026 04 AM PDT 3.58 1 0 Normal
09/02/2026 05 AM PDT 3.58 1 0 Normal
09/02/2026 06 AM PDT 3.59 1 + Normal
09/02/2026 07 AM PDT 3.59 1 0 Normal
09/02/2026 08 AM PDT 3.60 1 + Normal
09/02/2026 09 AM PDT 3.61 1 + Normal
09/02/2026 10 AM PDT 3.61 1 0 Normal
09/02/2026 11 AM PDT 3.61 1 0 Normal
09/02/2026 12 PM PDT 3.62 1 + Normal
09/02/2026 01 PM PDT 3.62 1 0 Normal
09/02/2026 02 PM PDT 3.62 1 0 Normal
09/02/2026 03 PM PDT 3.61 1 - Normal
09/02/2026 04 PM PDT 3.61 1 0 Normal
09/02/2026 05 PM PDT 3.61 1 0 Normal
09/02/2026 06 PM PDT 3.61 1 0 Normal
09/02/2026 07 PM PDT 3.60 1 - Normal
09/02/2026 08 PM PDT 3.61 1 + Normal
09/02/2026 09 PM PDT 3.61 1 0 Normal
09/02/2026 10 PM PDT 3.61 1 0 Normal
09/02/2026 11 PM PDT 3.61 1 0 Normal
09/03/2026 12 AM PDT 3.61 1 0 Normal
09/03/2026 01 AM PDT 3.61 1 0 Normal
09/03/2026 02 AM PDT 3.62 1 + Normal
09/03/2026 03 AM PDT 3.62 1 0 Normal
09/03/2026 04 AM PDT 3.62 1 0 Normal
09/03/2026 05 AM PDT 3.62 1 0 Normal
09/03/2026 06 AM PDT 3.62 1 0 Normal
09/03/2026 07 AM PDT 3.63 1 + Normal
09/03/2026 08 AM PDT 3.63 1 0 Normal
09/03/2026 09 AM PDT 3.63 1 0 Normal
09/03/2026 10 AM PDT 3.64 1 + Normal
09/03/2026 11 AM PDT 3.65 1 + Normal
09/03/2026 12 PM PDT 3.66 1 + Normal
09/03/2026 01 PM PDT 3.67 1 + Normal
09/03/2026 02 PM PDT 3.67 1 0 Normal
09/03/2026 03 PM PDT 3.67 1 0 Normal
09/03/2026 04 PM PDT 3.67 1 0 Normal
09/03/2026 05 PM PDT 3.67 1 0 Normal
09/03/2026 06 PM PDT 3.67 1 0 Normal
09/03/2026 07 PM PDT 3.67 1 0 Normal
09/03/2026 08 PM PDT 3.67 1 0 Normal
09/03/2026 09 PM PDT 3.67 1 0 Normal
09/03/2026 10 PM PDT 3.67 1 0 Normal
09/03/2026 11 PM PDT 3.67 1 0 Normal
09/04/2026 12 AM PDT 3.66 1 - Normal
09/04/2026 01 AM PDT 3.66 1 0 Normal
09/04/2026 02 AM PDT 3.66 1 0 Normal
09/04/2026 03 AM PDT 3.66 1 0 Normal
09/04/2026 04 AM PDT 3.66 1 0 Normal
09/04/2026 05 AM PDT 3.67 1 + Normal
09/04/2026 06 AM PDT 3.67 1 0 Normal
09/04/2026 07 AM PDT 3.67 1 0 Normal
#
# FORECAST
#
# Date & Time (Local) Stage (Feet) Flow (cfs) Trend Forecast Status
# ---------------------------------------------------------------------------------
09/04/2026 08 AM PDT 3.67 1 Normal
09/04/2026 09 AM PDT 3.67 1 0 Normal
09/04/2026 10 AM PDT 3.67 1 0 Normal
09/04/2026 11 AM PDT 3.67 1 0 Normal
09/04/2026 12 PM PDT 3.67 1 0 Normal
09/04/2026 01 PM PDT 3.67 1 0 Normal
09/04/2026 02 PM PDT 3.67 1 0 Normal
09/04/2026 03 PM PDT 3.67 1 0 Normal
09/04/2026 04 PM PDT 3.67 1 0 Normal
09/04/2026 05 PM PDT 3.67 1 0 Normal
09/04/2026 06 PM PDT 3.67 1 0 Normal
09/04/2026 07 PM PDT 3.67 1 0 Normal
09/04/2026 08 PM PDT 3.67 1 0 Normal
09/04/2026 09 PM PDT 3.67 1 0 Normal
09/04/2026 10 PM PDT 3.67 1 0 Normal
09/04/2026 11 PM PDT 3.67 1 0 Normal
09/05/2026 12 AM PDT 3.67 1 0 Normal
09/05/2026 01 AM PDT 3.67 1 0 Normal
09/05/2026 02 AM PDT 3.67 1 0 Normal
09/05/2026 03 AM PDT 3.67 1 0 Normal
09/05/2026 04 AM PDT 3.67 1 0 Normal
09/05/2026 05 AM PDT 3.67 1 0 Normal
09/05/2026 06 AM PDT 3.67 1 0 Normal
09/05/2026 07 AM PDT 3.67 1 0 Normal
09/05/2026 08 AM PDT 3.67 1 0 Normal
09/05/2026 09 AM PDT 3.67 1 0 Normal
09/05/2026 10 AM PDT 3.67 1 0 Normal
09/05/2026 11 AM PDT 3.67 1 0 Normal
09/05/2026 12 PM PDT 3.67 1 0 Normal
09/05/2026 01 PM PDT 3.67 1 0 Normal
09/05/2026 02 PM PDT 3.67 1 0 Normal
09/05/2026 03 PM PDT 3.67 1 0 Normal
09/05/2026 04 PM PDT 3.67 1 0 Normal
09/05/2026 05 PM PDT 3.67 1 0 Normal
09/05/2026 06 PM PDT 3.67 1 0 Normal
09/05/2026 07 PM PDT 3.67 1 0 Normal
09/05/2026 08 PM PDT 3.67 1 0 Normal
09/05/2026 09 PM PDT 3.67 1 0 Normal
09/05/2026 10 PM PDT 3.67 1 0 Normal
09/05/2026 11 PM PDT 3.67 1 0 Normal
09/06/2026 12 AM PDT 3.67 1 0 Normal
09/06/2026 01 AM PDT 3.67 1 0 Normal
09/06/2026 02 AM PDT 3.67 1 0 Normal
09/06/2026 03 AM PDT 3.67 1 0 Normal
09/06/2026 04 AM PDT 3.67 1 0 Normal
09/06/2026 05 AM PDT 3.67 1 0 Normal
09/06/2026 06 AM PDT 3.67 1 0 Normal
09/06/2026 07 AM PDT 3.67 1 0 Normal
09/06/2026 08 AM PDT 3.67 1 0 Normal
09/06/2026 09 AM PDT 3.67 1 0 Normal
09/06/2026 10 AM PDT 3.67 1 0 Normal
09/06/2026 11 AM PDT 3.67 1 0 Normal
09/06/2026 12 PM PDT 3.68 1 + Normal
09/06/2026 01 PM PDT 3.68 1 0 Normal
09/06/2026 02 PM PDT 3.68 1 0 Normal
09/06/2026 03 PM PDT 3.68 1 0 Normal
09/06/2026 04 PM PDT 3.68 1 0 Normal
09/06/2026 05 PM PDT 3.68 1 0 Normal
09/06/2026 06 PM PDT 3.68 1 0 Normal
09/06/2026 07 PM PDT 3.68 1 0 Normal
09/06/2026 08 PM PDT 3.68 1 0 Normal
09/06/2026 09 PM PDT 3.68 1 0 Normal
09/06/2026 10 PM PDT 3.68 1 0 Normal
09/06/2026 11 PM PDT 3.67 1 - Normal
09/07/2026 12 AM PDT 3.67 1 0 Normal
09/07/2026 01 AM PDT 3.67 1 0 Normal
09/07/2026 02 AM PDT 3.67 1 0 Normal
09/07/2026 03 AM PDT 3.67 1 0 Normal
09/07/2026 04 AM PDT 3.67 1 0 Normal
09/07/2026 05 AM PDT 3.67 1 0 Normal
09/07/2026 06 AM PDT 3.67 1 0 Normal
09/07/2026 07 AM PDT 3.67 1 0 Normal
09/07/2026 08 AM PDT 3.67 1 0 Normal
09/07/2026 09 AM PDT 3.67 1 0 Normal
09/07/2026 10 AM PDT 3.68 1 + Normal
09/07/2026 11 AM PDT 3.68 1 0 Normal
09/07/2026 12 PM PDT 3.68 1 0 Normal
09/07/2026 01 PM PDT 3.68 1 0 Normal
09/07/2026 02 PM PDT 3.68 1 0 Normal
09/07/2026 03 PM PDT 3.68 1 0 Normal
09/07/2026 04 PM PDT 3.68 1 0 Normal
09/07/2026 05 PM PDT 3.68 1 0 Normal
09/07/2026 06 PM PDT 3.68 1 0 Normal
09/07/2026 07 PM PDT 3.68 1 0 Normal
09/07/2026 08 PM PDT 3.68 1 0 Normal
09/07/2026 09 PM PDT 3.68 1 0 Normal
09/07/2026 10 PM PDT 3.68 1 0 Normal
09/07/2026 11 PM PDT 3.68 1 0 Normal
09/08/2026 12 AM PDT 3.68 1 0 Normal
09/08/2026 01 AM PDT 3.68 1 0 Normal
09/08/2026 02 AM PDT 3.68 1 0 Normal
09/08/2026 03 AM PDT 3.68 1 0 Normal
09/08/2026 04 AM PDT 3.68 1 0 Normal
09/08/2026 05 AM PDT 3.68 1 0 Normal
09/08/2026 06 AM PDT 3.68 1 0 Normal
09/08/2026 07 AM PDT 3.68 1 0 Normal
09/08/2026 08 AM PDT 3.68 1 0 Normal
09/08/2026 09 AM PDT 3.68 1 0 Normal
09/08/2026 10 AM PDT 3.68 1 0 Normal
09/08/2026 11 AM PDT 3.68 1 0 Normal
09/08/2026 12 PM PDT 3.68 1 0 Normal
09/08/2026 01 PM PDT 3.69 1 + Normal
09/08/2026 02 PM PDT 3.69 1 0 Normal
09/08/2026 03 PM PDT 3.69 1 0 Normal
09/08/2026 04 PM PDT 3.69 1 0 Normal
09/08/2026 05 PM PDT 3.69 1 0 Normal
09/08/2026 06 PM PDT 3.69 1 0 Normal
09/08/2026 07 PM PDT 3.69 1 0 Normal
09/08/2026 08 PM PDT 3.69 1 0 Normal
09/08/2026 09 PM PDT 3.69 1 0 Normal
09/08/2026 10 PM PDT 3.69 1 0 Normal
09/08/2026 11 PM PDT 3.69 1 0 Normal
09/09/2026 12 AM PDT 3.69 1 0 Normal
09/09/2026 01 AM PDT 3.69 1 0 Normal
09/09/2026 02 AM PDT 3.69 1 0 Normal
09/09/2026 03 AM PDT 3.69 1 0 Normal
09/09/2026 04 AM PDT 3.69 1 0 Normal
09/09/2026 05 AM PDT 3.69 1 0 Normal
#
# NOTE 1: Stages are rounded to the nearest hundredth (.01) of a foot.
# NOTE 2: Flows are rounded to the nearest (1) cfs.
# NOTE 3: Trends are determined using hourly change in unrounded stage and flow.
# NOTE 4: Maximum Values are determined using unrounded stage and flow.
|